Regional Weather Roundup
Issued by NWS

Home | Current Version | Previous Version | Graphics & Text | Print | Product List | Glossary On
Versions: 1 2 3 4 5 6 7 8 9 10 11 12 13 14 15 16 17 18 19 20 21 22 23 24 25 26 27 28 29 30 31 32 33 34 35 36 37 38 39 40 41 42 43 44 45 46 47 48 49 50
000
ASUS43 KIND 190209
RWRIN

WEATHER ROUNDUP FOR INDIANA
NATIONAL WEATHER SERVICE INDIANAPOLIS IN
900 PM EST SUN FEB 18 2018

NOTE: "FAIR" INDICATES FEW OR NO CLOUDS BELOW 12,000 FEET WITH NO
SIGNIFICANT WEATHER AND/OR OBSTRUCTIONS TO VISIBILITY.

* - STATION DOES NOT REPORT WEATHER SUCH AS PRECIPITATION OR FOG.

+ - STATION NOT QUALITY CONTROLLED BY THE NATIONAL WEATHER SERVICE.
    USE DATA WITH CAUTION...ESPECIALLY DEWPOINT AND RELATIVE
    HUMIDITY OBSERVATIONS.

INZ001>003-010>013-019-020-190300-
NORTHWEST INDIANA

CITY           SKY/WX    TMP DP  RH WIND       PRES   REMARKS
GARY /AIRPORT/ PTCLDY    39  30  70 S16G30    29.97F WCI  30
LA PORTE +     FAIR      37  30  78 SE15      30.01F WCI  27
MICHIGAN CITY+ FAIR      37  30  75 S13G21    29.99F WCI  29
MONTICELLO +   FAIR      38  32  79 SE10      30.03F WCI  31
RENSSELAER +   FAIR      37  30  75 SE12G20   30.01F WCI  30
VALPARAISO     FAIR      39  31  72 SE16G26   30.00F WCI  30

$$

LMZ046-743>745-190300-
SOUTHERN LAKE MICHIGAN

STATION/POSITION TIME  TEMP    WIND        PRES    WAVE
                       AIR SEA DIR/SP/G            HT
                 (UTC) (F)     (DEG/KT/KT) (MB)    (FT)
BURNS HARBOR     0140   38     160/ 12/ 22 1015.2F
MICHIGAN CITY    0140   38     140/ 20/ 25   N/A

$$

INZ004-005-014>016-021>024-190300-
NORTH CENTRAL INDIANA

CITY           SKY/WX    TMP DP  RH WIND       PRES   REMARKS
GOSHEN         FAIR      36  30  79 SE16      30.06F WCI  26
LOGANSPORT +   FAIR      34  32  93 SE13      30.06F WCI  25
PERU/GRISSOM   FAIR      37  36  99 SE14      30.05F WCI  28
ROCHESTER +    FAIR      37  32  81 SE10      30.06F WCI  30
SOUTH BEND     FAIR      36  29  75 SE17      30.03F WCI  26
WARSAW +       FAIR      36  32  87 SE14G20   30.07F WCI  27

$$

INZ006>009-017-018-025>027-190300-
NORTHEAST INDIANA

CITY           SKY/WX    TMP DP  RH WIND       PRES   REMARKS
AUBURN +       FAIR      36  32  87 SE6       30.13S WCI  31
FORT WAYNE     MOCLDY    37  31  78 SE12      30.12F WCI  29
HUNTINGTON +   FAIR      36  31  81 SE8       30.10F WCI  30
KENDALLVILLE + FAIR      35  31  87 SE13      30.10F WCI  26

$$

INZ028-029-035-036-043>045-051>053-190300-
WEST CENTRAL INDIANA

CITY           SKY/WX    TMP DP  RH WIND       PRES   REMARKS
CRAWFORDSVL +  FAIR      37  31  79 SE12      30.05F WCI  30
GREENCASTLE +  FAIR      37  30  75 CALM      30.07F
LAFAYETTE      FAIR      41  31  67 SE10      30.04F
TERRE HAUTE    FAIR      41  32  70 SE8       30.06F

$$

INZ030>032-037>040-046>048-054>057-064-065-190300-
CENTRAL INDIANA

CITY           SKY/WX    TMP DP  RH WIND       PRES   REMARKS
COLUMBUS       MOCLDY    41  30  65 SE9       30.12F
FISHERS *+       N/A     39  36  87 S9        30.10  WCI  33
FRANKFORT +    FAIR      38  34  82 S12       30.07F WCI  31
GREENWOOD *+   FAIR     N/A N/A N/A SE8       30.10F
INDIANAPOLIS   CLOUDY    41  33  73 SE8       30.10F
-EAGLE CREEK   FAIR      43  32  65 SE8       30.09F
KOKOMO +       FAIR      37  32  82 SE15      30.07F WCI  28
MARION +       FAIR      37  31  78 SE10      30.10F WCI  30
MT COMFORT *+  FAIR      39  36  87 SE12      30.10F WCI  32
SHELBYVILLE    FAIR      42  32  67 SE12      30.10F
ZIONSVILLE +   FAIR      38  33  80 SE10      30.08F WCI  31

$$

INZ033-034-041-042-049-050-058-059-190300-
EAST CENTRAL INDIANA

CITY           SKY/WX    TMP DP  RH WIND       PRES   REMARKS
MUNCIE         FAIR      40  31  70 SE8       30.10F WCI  34
RICHMOND +     FAIR      36  32  87 SE13      30.14F WCI  27

$$

INZ060-061-067>069-081>083-085>088-190300-
SOUTHWEST INDIANA

CITY           SKY/WX    TMP DP  RH WIND       PRES   REMARKS
EVANSVILLE     MOCLDY    49  34  56 SE6       30.08S
HUNTINGBURG +  FAIR      45  34  65 SE9       30.09F
WASHINGTON +   FAIR      42  33  70 SE8       30.08R

$$

INZ062-063-066-070>080-084-089>092-190300-
SOUTH CENTRAL AND SOUTHEAST INDIANA

CITY           SKY/WX    TMP DP  RH WIND       PRES   REMARKS
BATESVILLE +   CLEAR     39  36  87 MISG      30.13F
BEDFORD +      FAIR      43  30  61 SE9       30.08F
BLOOMINGTON    FAIR      43  32  65 S9        30.07F
FRENCH LICK *+ FAIR      45  28  53 E7        30.08F
MADISON *+     FAIR      43  32  65 SE6       30.15S
NORTH VERNON + FAIR      41  32  70 E6        30.13F
SEYMOUR +      FAIR      43  34  70 SE7       30.11F

$$




USA.gov is the U.S. government's official web portal to all federal, state and local government web resources and services.